Cloud_Cover
100 100 100 100 100 100 100 100 100 100 100 100 100 100 100 100 100 100 100 100 100 100 100 100 100 100 100 100 100 100 100 100 100 100 98 44 93 74 100 100 98 100 100 100 100 100 80 65 85 39 3 97 100 100
100 100 100 100 100 100 100 100 100 100 100 100 100 100 100 100 100 100 100 100 100 100 100 100 100 100 100 100 100 100 100 100 90 89 78 30 100 100 99 99 100 76 100 83 67 5 88 98 42 5 100 100 100 100
100 100 100 100 100 100 100 100 100 100 100 100 100 100 100 100 100 100 100 100 100 100 100 100 100 100 100 100 100 49 51 66 97 52 5 62 96 80 37 66 60 20 95 98 82 74 100 20 92 100 100 100 100 100
100 100 100 100 100 100 100 100 100 100 100 100 98 100 100 100 98 100 99 85 100 100 100 100 100 100 97 97 100 85 15 6 4 12 80 71 99 78 58 30 15 61 71 33 83 95 100 100 100 100 100 100 100 100
100 100 100 100 100 100 100 100 100 100 100 100 100 100 100 100 49 100 81 32 86 100 100 100 100 97 28 27 26 4 0 0 4 89 57 89 86 84 87 61 100 100 100 100 100 100 100 100 100 100 100 100 100 100
100 100 100 100 100 100 100 100 100 100 100 100 100 100 100 100 100 100 99 97 77 5 5 95 14 30 1 0 5 5 5 58 84 68 48 81 28 100 100 100 100 100 100 100 100 100 100 100 100 100 100 100 100 100
100 100 100 100 100 100 100 100 100 100 100 100 100 100 99 80 83 52 50 6 2 5 11 41 19 0 0 0 31 77 55 9 68 96 64 100 100 95 100 100 100 100 100 100 100 100 100 100 100 100 100 100 100 100
100 100 100 100 100 100 100 100 100 100 100 100 100 83 5 6 6 18 7 5 5 64 53 48 72 56 29 85 85 66 70 66 26 80 100 87 95 96 79 63 100 100 100 100 100 100 100 100 100 100 100 100 100 100
100 100 100 100 100 100 100 100 100 100 97 81 37 34 20 57 57 58 4 4 5 23 90 57 98 100 23 87 70 77 87 100 56 79 89 94 92 100 30 99 100 99 84 97 100 100 100 100 99 100 100 100 100 100
100 100 100 100 88 97 97 69 31 39 9 5 5 4 97 48 2 2 20 47 69 69 52 82 72 89 76 96 61 76 70 83 100 75 98 99 37 67 85 100 100 95 100 99 100 100 100 100 100 100 100 100 100 100
82 6 4 3 5 23 49 5 2 2 0 22 10 48 37 2 39 74 98 89 32 56 41 65 67 78 67 87 98 65 81 60 99 67 100 78 68 76 62 82 40 40 51 84 84 89 100 100 95 82 66 100 100 72
10 5 24 47 17 5 5 3 3 17 80 28 41 43 48 78 84 87 67 65 54 100 91 99 91 62 76 51 70 54 80 68 91 58 98 88 55 97 100 98 94 82 100 100 100 100 100 99 100 100 89 88 33 9
0 0 0 0 0 0 0 1 5 6 39 53 79 81 96 91 90 95 72 66 95 52 49 53 67 64 12 33 100 97 96 70 84 74 74 28 57 100 100 100 100 93 100 100 100 100 99 100 60 19 69 63 97 100
0 0 0 0 0 0 0 3 5 33 93 97 100 100 89 99 58 73 93 55 57 26 59 75 76 74 39 63 51 86 46 59 60 100 100 100 100 100 100 100 100 98 92 94 84 88 100 94 100 83 56 72 41 100
0 0 0 0 1 5 5 5 5 92 99 96 95 89 46 49 70 24 32 49 56 77 74 66 91 40 80 64 73 49 67 88 100 100 100 100 100 100 100 100 100 100 100 100 99 98 100 100 99 70 54 15 16 68
5 5 4 5 5 5 5 32 78 99 100 96 93 85 76 76 54 90 99 97 38 40 76 30 87 66 75 73 98 61 52 70 100 100 100 100 100 100 100 100 100 100 100 100 100 100 100 100 100 100 100 40 96 54
0 51 25 2 5 5 5 59 69 97 98 89 78 64 98 99 99 96 97 79 52 84 93 45 94 65 42 99 100 67 83 90 94 99 100 100 100 100 100 100 100 100 100 100 100 100 88 93 76 55 63 100 97 15
62 25 4 3 13 34 79 84 94 92 91 78 86 70 94 93 99 98 99 91 75 90 100 100 37 100 100 58 82 84 97 99 82 100 76 86 96 96 90 88 93 86 93 100 100 100 99 100 100 97 100 100 94 97
6 36 4 5 12 31 89 73 62 97 72 80 72 75 70 55 15 5 19 31 77 56 98 79 88 78 66 97 98 98 100 92 98 100 98 96 93 55 33 86 88 90 100 98 98 100 93 99 93 99 100 100 98 71
0 2 5 4 6 71 92 94 71 94 72 79 69 90 89 81 24 16 49 89 100 100 100 74 36 8 66 56 54 88 99 100 100 100 84 100 100 98 100 99 91 86 43 72 95 94 91 74 87 100 100 98 99 91
6 47 1 3 48 69 67 76 83 65 62 95 64 78 68 64 67 66 71 18 94 96 45 70 74 74 64 68 98 100 100 100 98 87 96 98 100 100 100 100 100 98 95 99 98 100 87 100 100 100 59 93 92 95
51 5 19 29 98 89 80 54 83 92 49 41 50 42 55 28 5 8 12 10 13 8 55 68 73 97 100 79 90 89 82 5 8 46 85 95 99 100 100 100 100 95 100 100 100 100 100 100 100 86 92 88 5 10
19 26 98 88 96 36 34 82 90 80 78 48 79 78 45 45 61 5 5 5 5 5 8 41 99 66 86 85 96 83 95 96 94 100 100 100 100 98 100 100 100 99 69 46 91 88 63 38 51 43 23 87 95 88
68 99 60 82 82 90 70 95 96 91 82 78 74 8 2 2 5 27 5 5 8 9 16 15 85 93 90 96 100 100 100 100 100 100 100 100 100 100 100 100 97 99 99 94 82 17 60 94 59 5 83 100 100 100
65 53 60 96 62 100 85 100 89 86 86 58 21 5 5 5 20 2 1 5 73 52 88 57 85 98 90 96 100 100 97 56 100 100 100 100 95 62 10 6 27 86 100 100 99 91 99 90 98 100 100 100 100 100
86 50 64 54 86 82 84 97 89 76 31 27 5 21 11 34 47 5 2 36 60 16 44 100 82 98 99 92 98 100 100 87 100 71 26 27 5 46 76 87 85 81 97 79 91 79 88 100 100 100 100 100 100 100
91 75 74 43 91 81 48 53 83 57 48 22 10 85 97 64 53 20 35 5 64 40 80 91 37 13 59 98 100 100 72 53 7 5 6 34 77 92 100 99 100 100 100 100 100 100 100 100 100 100 100 100 100 100
59 73 88 84 75 85 85 39 54 69 31 44 35 60 30 5 5 53 79 49 23 13 6 76 63 43 100 98 82 37 39 65 51 38 69 58 80 94 100 100 100 54 48 93 100 100 100 100 100 100 100 100 100 100
100 99 83 100 100 100 100 81 26 24 57 53 68 51 61 55 21 42 41 6 50 82 92 100 100 45 86 98 80 88 98 100 100 84 89 79 46 58 64 55 99 98 100 100 100 100 100 100 100 100 100 100 100 100
100 100 100 96 100 100 100 100 95 60 66 62 68 65 74 74 58 42 31 78 91 98 95 93 100 100 99 98 95 80 85 75 97 100 100 100 100 97 100 100 99 100 100 100 100 100 100 100 97 100 100 100 100 100
100 100 100 100 100 100 100 100 100 88 100 69 71 79 92 86 70 30 83 100 100 100 98 99 98 100 100 90 93 93 64 96 92 36 94 100 100 100 100 100 100 100 100 100 100 100 100 100 100 100 100 100 100 100
100 100 100 100 100 100 100 100 100 97 89 96 92 94 100 100 95 94 77 96 100 99 92 95 94 100 77 63 46 69 77 82 92 100 89 100 100 100 100 100 100 100 100 100 100 100 100 100 100 100 99 100 100 100
100 100 100 100 100 100 100 100 100 100 92 93 97 94 100 100 88 84 92 92 98 97 98 96 98 99 7 10 32 56 39 99 93 34 96 100 100 100 95 100 100 100 100 100 100 100 100 100 98 100 100 100 100 100